CW3077 Weather Reports


Display with metric or nautical units.
time (UTC)temp
F
wind
direction
speed
MPH
gust
MPH
rain 1hr
in
rain 24hr
in
rain mn
in
humidity
%
barometer
mb
20260507070016 59 45 5.0 12.0 0.00 0.00 0.00 84 1016.3
20260507065516 59 68 4.0 12.0 0.00 0.00 0.00 84 1016.4
20260507065016 59 45 6.0 12.0 0.00 0.00 0.00 84 1016.1
20260507064516 60 45 7.0 14.0 0.00 0.00 0.00 84 1015.8
20260507064016 60 45 6.0 14.0 0.00 0.00 0.00 84 1016.0
20260507063516 60 45 5.0 11.0 0.00 0.00 0.00 83 1016.3
20260507063016 60 45 6.0 14.0 0.00 0.00 0.00 83 1016.4
20260507062516 60 45 6.0 12.0 0.00 0.00 0.00 83 1016.3
20260507062016 60 45 6.0 15.0 0.00 0.00 0.00 83 1016.1
20260507061516 60 45 5.0 14.0 0.00 0.00 0.00 82 1016.3
20260507061016 60 45 4.0 10.0 0.00 0.00 0.00 82 1016.8
20260507060516 60 45 4.0 9.0 0.00 0.00 0.00 82 1016.8
20260507060036 60 23 5.0 13.0 0.00 0.00 0.00 82 1016.6
20260507055516 60 23 5.0 12.0 0.00 0.00 0.00 82 1016.3
20260507055016 60 45 5.0 12.0 0.00 0.00 0.00 82 1016.1
20260507054516 60 23 4.0 11.0 0.00 0.00 0.00 82 1016.1
20260507054016 60 45 5.0 12.0 0.00 0.00 0.00 81 1016.0
20260507053516 60 45 7.0 11.0 0.00 0.00 0.00 81 1015.9
20260507053016 61 45 7.0 12.0 0.00 0.00 0.00 81 1016.1
20260507052516 61 23 7.0 14.0 0.00 0.00 0.00 81 1016.0
20260507052016 61 23 8.0 14.0 0.00 0.00 0.00 82 1016.1
20260507051536 61 68 6.0 14.0 0.00 0.00 0.00 82 1016.1
20260507051016 61 45 8.0 15.0 0.00 0.00 0.00 82 1016.0
20260507050516 61 23 9.0 15.0 0.00 0.00 0.00 82 1016.2
20260507050016 61 23 7.0 12.0 0.00 0.00 0.00 82 1016.3
20260507045517 61 23 8.0 13.0 0.00 0.00 0.00 82 1016.1
20260507045017 61 45 6.0 11.0 0.00 0.00 0.00 82 1016.1
20260507044516 61 45 5.0 11.0 0.00 0.00 0.00 82 1016.3
20260507044017 61 45 7.0 15.0 0.00 0.00 0.00 82 1016.1
20260507043517 61 23 6.0 12.0 0.00 0.00 0.00 81 1016.3
20260507043037 61 23 9.0 16.0 0.00 0.00 0.00 81 1016.1
20260507042517 61 23 8.0 15.0 0.00 0.00 0.00 81 1016.0
20260507042017 61 23 8.0 13.0 0.00 0.00 0.00 81 1016.1
20260507041516 61 23 6.0 12.0 0.00 0.00 0.00 81 1016.2
20260507041017 61 23 6.0 13.0 0.00 0.00 0.00 81 1016.1
20260507040557 61 23 5.0 10.0 0.00 0.00 0.00 81 1016.1
20260507040016 61 23 5.0 10.0 0.00 0.00 0.00 81 1016.2
20260507035517 61 23 7.0 15.0 0.00 0.00 0.00 81 1016.3
20260507035157 61 45 6.0 11.0 0.00 0.00 0.00 82 1016.1
20260507034537 61 45 6.0 12.0 0.00 0.00 0.00 82 1016.1
20260507034017 61 23 6.0 13.0 0.00 0.00 0.00 82 1015.8
20260507033516 61 23 6.0 12.0 0.00 0.00 0.00 83 1016.0
20260507033017 61 23 6.0 13.0 0.00 0.00 0.00 83 1015.8
20260507032516 61 23 8.0 12.0 0.00 0.00 0.00 83 1015.9
20260507032016 61 23 5.0 12.0 0.00 0.00 0.00 83 1015.9
20260507031557 61 23 7.0 11.0 0.00 0.00 0.00 84 1015.9
20260507031016 61 0 5.0 12.0 0.00 0.00 0.00 84 1015.5
20260507030516 61 23 5.0 13.0 0.00 0.00 0.00 84 1015.5
20260507030016 61 23 5.0 10.0 0.00 0.00 0.00 83 1015.4
20260507025516 61 23 5.0 10.0 0.00 0.00 0.00 83 1015.7
20260507025016 61 23 4.0 10.0 0.00 0.00 0.00 83 1015.9
20260507024516 61 23 3.0 11.0 0.00 0.00 0.00 83 1015.9
20260507024016 61 0 4.0 10.0 0.00 0.00 0.00 83 1015.5
20260507023517 61 23 4.0 11.0 0.00 0.00 0.00 83 1015.4
20260507023016 61 23 6.0 12.0 0.00 0.00 0.00 83 1015.3
20260507022516 61 23 6.0 14.0 0.00 0.00 0.00 83 1015.2
20260507022036 61 0 4.0 11.0 0.00 0.00 0.00 83 1015.2
20260507021517 61 0 3.0 10.0 0.00 0.00 0.00 83 1015.3
20260507021017 61 23 3.0 5.0 0.00 0.00 0.00 83 1015.6
20260507020516 61 23 3.0 10.0 0.00 0.00 0.00 83 1015.3
20260507020016 61 0 4.0 9.0 0.00 0.00 0.00 83 1015.1
20260507015516 61 0 3.0 9.0 0.00 0.00 0.00 83 1015.2
20260507015016 62 23 3.0 10.0 0.00 0.00 0.00 83 1014.9
20260507014557 61 23 3.0 10.0 0.00 0.00 0.00 83 1014.8
20260507014036 61 0 4.0 9.0 0.00 0.00 0.00 83 1015.0
20260507013517 61 0 3.0 9.0 0.00 0.00 0.00 83 1014.5
20260507013016 61 23 3.0 10.0 0.00 0.00 0.00 82 1014.3
20260507012516 62 0 4.0 9.0 0.00 0.00 0.00 82 1014.2
20260507012017 62 0 3.0 9.0 0.00 0.00 0.00 83 1014.0
20260507011516 62 338 3.0 7.0 0.00 0.00 0.00 82 1014.2
20260507011016 62 0 2.0 7.0 0.00 0.00 0.00 82 1014.3
20260507010537 62 0 3.0 8.0 0.00 0.00 0.00 82 1014.1
20260507010016 62 338 2.0 7.0 0.00 0.00 0.00 82 1014.1
20260507005516 62 0 4.0 10.0 0.00 0.00 0.00 82 1014.0
20260507005016 62 0 3.0 10.0 0.00 0.00 0.00 81 1013.8
20260507004536 62 23 3.0 8.0 0.00 0.00 0.00 81 1013.6
20260507004016 62 23 4.0 8.0 0.00 0.00 0.00 81 1013.9
20260507003516 62 23 5.0 10.0 0.00 0.00 0.00 81 1013.6
20260507003016 62 23 5.0 11.0 0.00 0.00 0.00 81 1013.7
20260507002516 62 338 3.0 8.0 0.00 0.00 0.00 82 1013.5
20260507002016 62 338 3.0 8.0 0.00 0.00 0.00 82 1013.5
20260507001516 62 338 4.0 12.0 0.00 0.00 0.00 82 1013.5
20260507001016 62 338 3.0 10.0 0.00 0.00 0.00 82 1013.7
20260507000516 62 338 4.0 10.0 0.00 0.00 0.00 81 1013.7
20260507000036 62 338 4.0 10.0 0.00 0.00 0.00 81 1013.3
20260506235516 62 23 5.0 10.0 0.00 0.00 0.00 81 1013.5
20260506235016 62 45 4.0 10.0 0.00 0.00 0.00 81 1013.6
20260506234516 62 23 6.0 12.0 0.00 0.00 0.00 81 1013.4
20260506234016 62 0 4.0 10.0 0.00 0.00 0.00 81 1013.3
20260506233517 62 23 4.0 10.0 0.00 0.00 0.00 81 1013.3
20260506233016 62 23 6.0 12.0 0.00 0.00 0.00 80 1013.3
20260506232536 62 23 5.0 11.0 0.00 0.00 0.00 81 1013.4
20260506232016 62 23 6.0 13.0 0.00 0.00 0.00 81 1013.4
20260506231516 62 0 6.0 12.0 0.00 0.00 0.00 81 1013.4
20260506231016 62 23 4.0 11.0 0.00 0.00 0.00 81 1013.5
20260506230516 62 23 7.0 11.0 0.00 0.00 0.00 81 1013.3
20260506230016 62 23 5.0 10.0 0.00 0.00 0.00 81 1013.4
20260506225516 62 23 6.0 12.0 0.00 0.00 0.00 81 1013.4
20260506225016 62 23 6.0 13.0 0.00 0.00 0.00 81 1013.4
20260506224516 61 23 6.0 11.0 0.00 0.00 0.00 82 1013.4
20260506224036 61 23 7.0 14.0 0.00 0.00 0.00 81 1013.4
20260506223516 61 0 6.0 12.0 0.00 0.00 0.00 81 1013.1
20260506223016 61 23 6.0 10.0 0.00 0.00 0.00 82 1013.1
20260506222536 61 23 6.0 12.0 0.00 0.00 0.00 82 1013.1
20260506222016 61 23 6.0 13.0 0.00 0.00 0.00 82 1013.2
20260506221516 61 23 6.0 15.0 0.00 0.00 0.00 82 1013.2
20260506221016 61 0 5.0 10.0 0.00 0.00 0.00 82 1013.2
20260506220516 61 0 7.0 14.0 0.00 0.00 0.00 82 1013.3
20260506220016 61 23 6.0 13.0 0.00 0.00 0.00 81 1013.3
20260506215516 61 0 8.0 16.0 0.00 0.00 0.00 81 1013.0
20260506215016 62 23 7.0 13.0 0.00 0.00 0.00 81 1013.2
20260506214516 62 23 7.0 15.0 0.00 0.00 0.00 81 1013.0
20260506214016 61 23 8.0 16.0 0.00 0.00 0.00 81 1013.1
20260506213516 62 0 7.0 18.0 0.00 0.00 0.00 81 1013.2
20260506213016 62 23 6.0 13.0 0.00 0.00 0.00 81 1013.3
20260506212536 62 23 9.0 17.0 0.00 0.00 0.00 80 1013.3
20260506212016 62 0 8.0 15.0 0.00 0.00 0.00 80 1013.3
20260506211516 62 0 8.0 14.0 0.00 0.00 0.00 80 1013.4
20260506211016 62 338 7.0 13.0 0.00 0.00 0.00 81 1013.4
20260506210516 62 0 5.0 10.0 0.00 0.00 0.00 80 1013.4
20260506210016 62 0 7.0 13.0 0.00 0.00 0.00 80 1013.5
20260506205536 63 23 7.0 13.0 0.00 0.00 0.00 79 1013.5
20260506205016 63 0 5.0 9.0 0.00 0.00 0.00 79 1013.6
20260506204516 63 0 6.0 14.0 0.00 0.00 0.00 79 1013.5
20260506204016 63 0 5.0 10.0 0.00 0.00 0.00 79 1013.4
20260506203516 63 45 8.0 15.0 0.00 0.00 0.00 79 1013.6
20260506203016 63 0 8.0 16.0 0.00 0.00 0.00 79 1013.5
20260506202536 63 0 7.0 16.0 0.00 0.00 0.00 79 1013.5
20260506202015 64 0 7.0 15.0 0.00 0.00 0.00 78 1013.4
20260506201516 64 23 7.0 17.0 0.00 0.00 0.00 78 1013.4
20260506201015 65 23 8.0 20.0 0.00 0.00 0.00 76 1013.3
20260506200516 65 0 8.0 17.0 0.00 0.00 0.00 77 1013.3
20260506200016 65 23 8.0 15.0 0.00 0.00 0.00 77 1013.2
20260506195515 65 23 8.0 17.0 0.00 0.00 0.00 78 1013.2
20260506195016 65 0 8.0 16.0 0.00 0.00 0.00 77 1013.3
20260506194515 66 0 8.0 18.0 0.00 0.00 0.00 78 1013.2
20260506194016 66 338 6.0 12.0 0.00 0.00 0.00 77 1013.1
20260506193536 66 0 5.0 14.0 0.00 0.00 0.00 79 1013.2
20260506193015 66 338 6.0 14.0 0.00 0.00 0.00 80 1013.1
20260506192515 66 315 6.0 14.0 0.00 0.00 0.00 79 1013.3
20260506192016 67 338 7.0 13.0 0.00 0.00 0.00 80 1013.4
20260506191516 68 338 6.0 12.0 0.00 0.00 0.00 78 1013.3
20260506191016 68 338 5.0 13.0 0.00 0.00 0.00 78 1013.4
20260506190515 68 0 5.0 12.0 0.00 0.00 0.00 78 1013.3
20260506190016 68 338 6.0 14.0 0.00 0.00 0.00 77 1013.3
20260506185516 69 338 7.0 15.0 0.00 0.00 0.00 76 1013.1
20260506185015 71 23 8.0 15.0 0.00 0.00 0.00 74 1013.1
20260506184515 71 23 5.0 10.0 0.00 0.00 0.00 74 1013.0
20260506184016 71 23 6.0 12.0 0.00 0.00 0.00 74 1013.1
20260506183516 71 0 6.0 12.0 0.00 0.00 0.00 74 1013.0
20260506183015 72 0 6.0 11.0 0.00 0.00 0.00 72 1013.2
20260506182516 73 23 6.0 14.0 0.00 0.00 0.00 73 1013.0
20260506182035 73 45 6.0 13.0 0.00 0.00 0.00 71 1013.1
20260506181535 72 23 6.0 13.0 0.00 0.00 0.00 72 1013.1
20260506181016 73 23 8.0 13.0 0.00 0.00 0.00 71 1013.2
20260506180556 72 23 6.0 12.0 0.00 0.00 0.00 74 1013.0
20260506180015 72 0 5.0 10.0 0.00 0.00 0.00 74 1013.0
20260506175536 71 23 6.0 10.0 0.00 0.00 0.00 74 1012.8
20260506175015 71 23 5.0 12.0 0.00 0.00 0.00 73 1012.6
20260506174515 71 23 5.0 11.0 0.00 0.00 0.00 74 1012.7
20260506174015 71 23 5.0 10.0 0.00 0.00 0.00 76 1012.6
20260506173515 70 68 5.0 12.0 0.00 0.00 0.00 77 1012.6
20260506173015 69 90 6.0 11.0 0.00 0.00 0.00 76 1012.5
20260506172515 68 90 5.0 11.0 0.00 0.00 0.00 79 1012.6
20260506172015 68 90 5.0 10.0 0.00 0.00 0.00 79 1012.7
20260506171515 67 45 5.0 10.0 0.00 0.00 0.00 78 1012.7
20260506171016 68 90 5.0 12.0 0.00 0.00 0.00 78 1012.7
20260506170515 67 90 6.0 10.0 0.00 0.00 0.00 78 1012.6
20260506170015 67 23 7.0 12.0 0.00 0.00 0.00 80 1012.6
20260506165515 67 90 6.0 12.0 0.00 0.00 0.00 81 1012.6
20260506165015 66 68 7.0 12.0 0.00 0.00 0.00 83 1012.8
20260506164515 65 90 6.0 13.0 0.00 0.00 0.00 85 1012.9
20260506164016 64 45 6.0 12.0 0.00 0.00 0.00 86 1013.3
20260506163515 63 23 7.0 12.0 0.00 0.00 0.00 88 1013.1
20260506163016 62 45 7.0 12.0 0.00 0.00 0.00 86 1013.2
20260506162536 61 23 7.0 13.0 0.00 0.00 0.00 86 1013.4
20260506162015 60 45 9.0 19.0 0.00 0.00 0.00 88 1012.9
20260506161515 61 45 7.0 13.0 0.00 0.00 0.00 88 1013.4
20260506161015 61 23 10.0 17.0 0.00 0.00 0.00 88 1013.9
20260506160515 61 23 7.0 17.0 0.00 0.00 0.00 88 1014.2
20260506160036 61 23 7.0 15.0 0.00 0.00 0.00 88 1014.7
20260506155515 61 23 7.0 12.0 0.00 0.00 0.00 88 1014.4
20260506155035 61 23 10.0 19.0 0.00 0.00 0.00 88 1014.4
20260506154515 62 0 10.0 18.0 0.00 0.00 0.00 88 1014.7
20260506154015 62 23 8.0 21.0 0.00 0.00 0.00 88 1014.1
20260506153515 63 23 8.0 16.0 0.00 0.00 0.00 88 1014.6
20260506153055 63 23 8.0 17.0 0.00 0.00 0.00 89 1014.1
20260506152515 63 0 8.0 18.0 0.00 0.00 0.00 89 1014.0
20260506152015 64 23 7.0 15.0 0.00 0.00 0.00 88 1013.7
20260506151515 64 0 7.0 17.0 0.00 0.00 0.00 89 1013.4
20260506151015 64 23 7.0 15.0 0.00 0.00 0.00 88 1013.0
20260506150515 65 0 7.0 14.0 0.00 0.00 0.00 88 1012.9
20260506150015 65 23 8.0 17.0 0.00 0.00 0.00 88 1012.9
20260506145515 66 23 11.0 22.0 0.00 0.00 0.00 88 1012.6
20260506145015 67 23 9.0 22.0 0.00 0.00 0.00 88 1012.5
20260506144515 67 23 8.0 14.0 0.00 0.00 0.00 88 1012.0
20260506144015 68 23 9.0 19.0 0.00 0.00 0.00 86 1011.9
20260506143515 69 45 8.0 16.0 0.00 0.00 0.00 86 1012.2
20260506143015 70 23 7.0 17.0 0.00 0.00 0.00 86 1012.1
20260506142515 71 23 9.0 16.0 0.00 0.00 0.00 85 1011.5
20260506142015 74 23 6.0 13.0 0.00 0.00 0.00 85 1011.5
20260506141515 76 0.0 4.0 0.00 0.00 0.00 86 1011.2
20260506141015 76 0.0 1.0 0.00 0.00 0.00 86 1011.3
20260506140515 76 0.0 1.0 0.00 0.00 0.00 85 1011.4
20260506140015 75 0.0 0.0 0.00 0.00 0.00 86 1011.5
20260506135515 75 0.0 1.0 0.00 0.00 0.00 85 1011.7
20260506135015 75 0.0 2.0 0.00 0.00 0.00 85 1011.4
20260506134535 75 135 2.0 4.0 0.00 0.00 0.00 85 1011.0
20260506134015 75 0.0 3.0 0.00 0.00 0.00 84 1010.9
20260506133536 75 0.0 0.0 0.00 0.00 0.00 84 1011.1
20260506133015 75 135 1.0 3.0 0.00 0.00 0.00 82 1011.0
20260506132515 75 135 1.0 4.0 0.00 0.00 0.00 81 1011.1
20260506132017 75 135 1.0 4.0 0.00 0.00 0.00 80 1011.0
20260506131515 75 135 2.0 4.0 0.00 0.00 0.00 78 1010.7
20260506131037 75 135 2.0 6.0 0.00 0.00 0.00 76 1010.5
20260506130517 74 135 3.0 7.0 0.00 0.00 0.00 76 1010.5
20260506130017 74 158 3.0 6.0 0.00 0.00 0.00 75 1010.7
20260506125517 74 135 2.0 9.0 0.00 0.00 0.00 74 1010.5
20260506125017 74 135 2.0 5.0 0.00 0.00 0.00 74 1010.5
20260506124537 73 180 1.0 4.0 0.00 0.00 0.00 74 1010.3
20260506124017 73 180 1.0 3.0 0.00 0.00 0.00 75 1010.4
20260506123517 73 180 1.0 3.0 0.00 0.00 0.00 75 1010.4
20260506123017 72 180 1.0 6.0 0.00 0.00 0.00 75 1010.2
20260506122517 72 180 1.0 4.0 0.00 0.00 0.00 76 1010.3
20260506122037 72 0.0 0.0 0.00 0.00 0.00 76 1010.3
20260506121517 72 0.0 0.0 0.00 0.00 0.00 76 1010.4
20260506121017 72 0.0 0.0 0.00 0.00 0.00 76 1010.3
20260506120517 72 0.0 0.0 0.00 0.00 0.00 77 1010.3
20260506120017 72 0.0 0.0 0.00 0.00 0.00 77 1010.3
20260506115517 72 0.0 0.0 0.00 0.00 0.00 78 1010.2
20260506115037 72 0.0 1.0 0.00 0.00 0.00 78 1010.2
20260506114516 72 0.0 1.0 0.00 0.00 0.00 78 1010.1
20260506114037 73 0.0 1.0 0.00 0.00 0.00 79 1010.2
20260506113517 73 0.0 1.0 0.00 0.00 0.00 79 1010.1
20260506113017 73 0.0 2.0 0.00 0.00 0.00 79 1010.2
20260506112537 73 0.0 1.0 0.00 0.00 0.00 79 1010.3
20260506112017 73 203 1.0 2.0 0.00 0.00 0.00 80 1010.3
20260506111516 73 0.0 2.0 0.00 0.00 0.00 80 1010.3
20260506111017 74 203 1.0 4.0 0.00 0.00 0.00 81 1010.2
20260506110516 74 180 1.0 3.0 0.00 0.00 0.00 81 1010.3
20260506110016 74 180 1.0 3.0 0.00 0.00 0.00 82 1010.3
20260506105537 74 180 1.0 3.0 0.00 0.00 0.00 82 1010.3
20260506105017 74 0.0 2.0 0.00 0.00 0.00 83 1010.3
20260506104516 74 180 1.0 3.0 0.00 0.00 0.00 83 1010.2
20260506104037 74 180 1.0 3.0 0.00 0.00 0.00 83 1010.3
20260506103517 74 180 1.0 4.0 0.00 0.00 0.00 84 1010.2
20260506103017 74 180 1.0 4.0 0.00 0.00 0.00 84 1010.1
20260506102517 74 180 2.0 5.0 0.00 0.00 0.00 85 1010.0
20260506102017 74 180 1.0 6.0 0.00 0.00 0.00 85 1010.0
20260506101517 74 158 1.0 4.0 0.00 0.00 0.00 85 1010.0
20260506101016 74 180 1.0 6.0 0.00 0.00 0.00 85 1010.0
20260506100516 74 180 2.0 4.0 0.00 0.00 0.00 85 1009.8
20260506100017 74 203 1.0 5.0 0.00 0.00 0.00 86 1009.8
20260506095517 74 203 1.0 6.0 0.00 0.00 0.00 86 1010.0
20260506095037 74 180 2.0 6.0 0.00 0.00 0.00 86 1009.9
20260506094517 74 158 2.0 8.0 0.00 0.00 0.00 86 1009.8
20260506094017 75 158 1.0 7.0 0.00 0.00 0.00 86 1009.7
20260506093516 75 158 1.0 7.0 0.00 0.00 0.00 86 1009.7
20260506093016 75 158 2.0 7.0 0.00 0.00 0.00 86 1009.6
20260506092557 74 158 1.0 7.0 0.00 0.00 0.00 86 1009.6
20260506092016 74 158 1.0 6.0 0.00 0.00 0.00 86 1009.5
20260506091516 74 158 2.0 6.0 0.00 0.00 0.00 86 1009.4
20260506091016 74 158 2.0 6.0 0.00 0.00 0.00 86 1009.5
20260506090517 75 0.0 3.0 0.00 0.00 0.00 86 1009.5
20260506090017 75 180 1.0 4.0 0.00 0.00 0.00 86 1009.4
20260506085516 75 180 1.0 6.0 0.00 0.00 0.00 86 1009.4
20260506085016 75 180 1.0 3.0 0.00 0.00 0.00 86 1009.4
20260506084516 75 180 1.0 5.0 0.00 0.00 0.00 86 1009.5
20260506084016 75 203 1.0 7.0 0.00 0.00 0.00 86 1009.5
20260506083516 75 180 1.0 4.0 0.00 0.00 0.00 86 1009.4
20260506083017 75 180 1.0 4.0 0.00 0.00 0.00 86 1009.4
20260506082537 75 180 1.0 4.0 0.00 0.00 0.00 86 1009.5
20260506082017 75 180 1.0 4.0 0.00 0.00 0.00 86 1009.5
20260506081516 75 180 1.0 6.0 0.00 0.00 0.00 86 1009.4
20260506081017 75 180 1.0 4.0 0.00 0.00 0.00 86 1009.2
20260506080516 75 158 3.0 9.0 0.00 0.00 0.00 86 1009.1
20260506073516 75 203 5.0 14.0 0.00 0.00 0.00 86 1009.3
20260506073016 75 203 5.0 12.0 0.00 0.00 0.00 86 1009.4
20260506072517 75 225 4.0 13.0 0.00 0.00 0.00 86 1009.4
20260506072016 75 203 5.0 11.0 0.00 0.00 0.00 86 1009.5
20260506071516 75 180 6.0 13.0 0.00 0.00 0.00 86 1009.6
20260506071016 75 180 7.0 16.0 0.00 0.00 0.00 86 1009.4